Lander, WY

2:15 PM MDT on May 26, 2017 (GMT -0600)
Hunt

Weather History for KLND - January, 2014

Change the Weather History Date:

Sunday, January 5, 2014

  Actual Average Record
Temperature  
Mean Temperature -2 °F 21 °F  
Max Temperature 8 °F 33 °F 59 °F (1903)
Min Temperature -12 °F 10 °F -32 °F (1942)
Degree Days  
Heating Degree Days 67 44  
Month to date heating degree days 233 220  
Since 1 July heating degree days 3506 3466  
Cooling Degree Days 0 0  
Month to date cooling degree days 0 0  
Year to date cooling degree days 0 0  
Moisture  
Dew Point -3 °F    
Average Humidity 78    
Maximum Humidity 87    
Minimum Humidity 69    
Precipitation  
Precipitation 0.01 in 0.02 in 0.32 in (1940)
Month to date precipitation 0.47 0.08  
Year to date precipitation 0.47 0.08  
Snow  
Snow 0.30 in 0.20 in - ()
Month to date snowfall 7.2 1.3  
Since 1 July snowfall 49.8 37.0  
Snow Depth 5.00 in    
Sea Level Pressure  
Sea Level Pressure 30.38 in    
Wind  
Wind Speed 5 mph (NW)    
Max Wind Speed 16 mph    
Max Gust Speed 19 mph    
Visibility 6 miles    
Events Fog , Snow    
T = Trace of Precipitation, MM = Missing Value Source: NWS Daily Summary

Daily Weather History Graph

Daily Weather History Graph

Search for Another Location

Airport or City:

Trip Planner

Search our weather history database for the weather conditions in past years. The results will help you decide how hot, cold, wet, or windy it might be!

Date:

Astronomy

Jan. 05, 2014 Rise Set
Actual Time 7:45 AM MST 4:55 PM MST
Civil Twilight 7:13 AM MST 5:27 PM MST
Nautical Twilight 6:38 AM MST 6:02 PM MST
Astronomical Twilight 6:04 AM MST 6:37 PM MST
Moon 10:21 AM MST (1/5) 10:35 PM MST (1/5)
Length of Visible Light 10h 13m
Length of Day
9h 09m
Waxing Crescent, 25% of the Moon is Illuminated
Jan 5
Waxing Crescent
Jan 7
First Quarter
Jan 15
Full
Jan 23
Last Quarter
Jan 30
New

Hourly Weather History & Observations

Time (MST) Temp. Windchill Dew Point Humidity Pressure Visibility Wind Dir Wind Speed Gust Speed Precip Events Conditions
12:53 AM 5.0 °F -2.1 °F -0.0 °F 80% 30.23 in 10.0 mi SSW 3.5 mph - N/A   Clear
1:53 AM 6.1 °F -2.8 °F -2.0 °F 69% 30.24 in 10.0 mi WNW 4.6 mph - N/A   Clear
2:53 AM 1.0 °F -8.7 °F -4.0 °F 79% 30.29 in 10.0 mi WNW 4.6 mph - N/A   Clear
3:29 AM 1.9 °F -9.2 °F -2.0 °F 83% 30.08 in 9.0 mi NW 5.8 mph - N/A   Overcast
3:49 AM 3.2 °F -9.1 °F 1.4 °F 92% 30.09 in 2.5 mi West 6.9 mph - 0.00 in Snow Light Snow
3:51 AM 5.0 °F -6.9 °F 1.4 °F 85% 30.09 in 1.8 mi West 6.9 mph - 0.00 in Snow Light Snow
3:53 AM 5.0 °F -5.6 °F 1.0 °F 84% 30.32 in 1.5 mi West 5.8 mph - 0.00 in Snow Light Snow
4:18 AM 5.0 °F -6.9 °F 1.9 °F 87% 30.12 in 1.5 mi NW 6.9 mph - 0.00 in Snow Light Snow
4:28 AM 5.0 °F -2.1 °F 3.0 °F 92% 30.13 in 2.0 mi NW 3.5 mph - 0.00 in Snow Light Snow
4:50 AM 5.0 °F -5.6 °F 1.4 °F 85% 30.14 in 2.0 mi NW 5.8 mph - 0.00 in Snow Light Snow
4:53 AM 5.0 °F -5.6 °F 1.9 °F 87% 30.38 in 2.0 mi NW 5.8 mph - 0.00 in Snow Light Snow
5:27 AM 6.1 °F -4.3 °F 3.0 °F 87% 30.16 in 3.0 mi NNW 5.8 mph - 0.00 in Snow Light Snow
5:53 AM 5.0 °F -6.9 °F 1.9 °F 87% 30.42 in 3.0 mi North 6.9 mph - 0.00 in Snow Light Snow
6:31 AM 5.0 °F -4.1 °F 1.9 °F 87% 30.17 in 5.0 mi NNW 4.6 mph - 0.00 in Snow Light Snow
6:53 AM 5.0 °F -2.1 °F 1.9 °F 87% 30.43 in 8.0 mi NNW 3.5 mph - 0.00 in   Overcast
7:53 AM 5.0 °F -4.1 °F 1.9 °F 87% 30.48 in 4.0 mi North 4.6 mph - 0.00 in Snow Light Snow
8:05 AM 5.0 °F -2.1 °F 1.9 °F 87% 30.23 in 1.8 mi NE 3.5 mph - 0.00 in Snow Light Snow
8:18 AM 3.9 °F -15.0 °F -0.9 °F 80% 30.24 in 0.8 mi NNE 16.1 mph - 0.00 in Snow Light Snow
8:29 AM 3.0 °F -14.8 °F -0.9 °F 84% 30.25 in 1.0 mi NNE 13.8 mph - 0.00 in Snow Light Snow
8:39 AM 3.0 °F -13.3 °F -0.9 °F 84% 30.26 in 0.8 mi North 11.5 mph - 0.00 in Snow Light Snow
8:53 AM 1.9 °F -10.6 °F -2.0 °F 83% 30.55 in 0.8 mi North 6.9 mph - 0.01 in Snow Light Snow
9:02 AM 1.9 °F -10.6 °F -0.9 °F 88% 30.28 in 1.0 mi North 6.9 mph - 0.00 in Snow Light Snow
9:23 AM 3.0 °F -8.0 °F -0.9 °F 84% 30.29 in 0.8 mi North 5.8 mph - 0.00 in Snow Light Snow
9:53 AM 3.0 °F -10.5 °F -0.9 °F 84% 30.57 in 0.5 mi North 8.1 mph - 0.00 in Fog , Snow Light Snow
10:19 AM 3.0 °F -4.4 °F -0.9 °F 84% 30.31 in 0.8 mi North 3.5 mph - 0.00 in Snow Light Snow
10:28 AM 3.9 °F - -0.9 °F 80% 30.31 in 1.2 mi Calm Calm - 0.00 in Snow Light Snow
10:53 AM 3.0 °F - -0.9 °F 84% 30.60 in 1.5 mi Calm Calm - 0.00 in   Overcast
11:02 AM 3.9 °F -5.3 °F -0.9 °F 80% 30.31 in 3.0 mi SSE 4.6 mph - N/A   Haze
11:26 AM 3.9 °F -8.2 °F -2.0 °F 76% 30.30 in 5.0 mi SSE 6.9 mph - N/A   Haze
11:40 AM 3.0 °F -9.3 °F -0.9 °F 84% 30.30 in 5.0 mi SE 6.9 mph - N/A   Overcast
11:53 AM 3.0 °F -9.3 °F -0.9 °F 84% 30.59 in 5.0 mi ESE 6.9 mph - N/A   Mostly Cloudy
12:14 PM 3.0 °F -9.3 °F -0.9 °F 84% 30.29 in 7.0 mi ESE 6.9 mph - N/A   Scattered Clouds
12:53 PM 3.9 °F -10.4 °F -2.0 °F 76% 30.57 in 9.0 mi East 9.2 mph - N/A   Partly Cloudy
1:53 PM 3.0 °F -8.0 °F -4.0 °F 73% 30.57 in 10.0 mi East 5.8 mph - N/A   Clear
2:53 PM 3.0 °F -4.4 °F -2.0 °F 80% 30.62 in 10.0 mi ESE 3.5 mph - N/A   Partly Cloudy
3:08 PM 1.0 °F -6.7 °F -2.9 °F 83% 30.31 in 10.0 mi SSW 3.5 mph - N/A   Mostly Cloudy
3:53 PM 1.9 °F -9.2 °F -5.1 °F 72% 30.64 in 10.0 mi SE 5.8 mph - N/A   Overcast
4:53 PM -0.9 °F -8.9 °F -7.1 °F 75% 30.68 in 10.0 mi South 3.5 mph - N/A   Overcast
5:53 PM -2.0 °F -10.1 °F -8.0 °F 76% 30.68 in 10.0 mi South 3.5 mph - N/A   Mostly Cloudy
6:02 PM -2.0 °F -10.1 °F -8.0 °F 76% 30.36 in 10.0 mi South 3.5 mph - N/A   Scattered Clouds
6:09 PM -2.0 °F -10.1 °F -8.0 °F 76% 30.36 in 10.0 mi SSW 3.5 mph - N/A   Mostly Cloudy
6:19 PM -2.0 °F -10.1 °F -8.0 °F 76% 30.35 in 10.0 mi SW 3.5 mph - N/A   Partly Cloudy
6:53 PM -2.9 °F - -8.0 °F 79% 30.69 in 10.0 mi Calm Calm - N/A   Clear
7:53 PM -5.1 °F - -11.0 °F 76% 30.67 in 10.0 mi Calm Calm - N/A   Clear
8:53 PM -8.0 °F -21.0 °F -13.0 °F 79% 30.66 in 10.0 mi WSW 5.8 mph - N/A   Clear
9:53 PM -8.0 °F - -13.0 °F 79% 30.62 in 10.0 mi Calm Calm - N/A   Clear
10:53 PM -11.0 °F -27.6 °F -15.0 °F 83% 30.63 in 10.0 mi NW 8.1 mph - N/A   Clear
11:53 PM -9.9 °F -23.4 °F -13.0 °F 86% 30.60 in 10.0 mi WNW 5.8 mph - N/A   Clear